Weather observations for the past three days for
Marion Municipal Airport
Imperial (Metric)
Date Time (edt) Wind (mph) Vis. (mi.) Weather Sky Cond. Temperature (ºF) Relative Humidity Wind Chill (°F) Heat Index (°F) Pressure Precipitation (in)
Air Dwpt 6 hour altimeter (in) sea level (mb) 1 hr 3 hr 6 hr
Max. Min.
13 16:35 SW 13 G 20 7.00 Fair CLR 88 55.6 33% 86 29.92 0.0
13 16:15 SW 13 G 20 7.00 Fair CLR 88.2 55.6 33% 86 29.92 0.0
13 15:55 W 13 G 24 10.00 Fair CLR 87.8 56.5 35% 86 29.92 0.0
13 15:35 SW 18 G 23 7.00 Fair CLR 87.6 56.7 35% 86 29.93 0.0
13 15:15 SW 13 7.00 Fair CLR 87.3 57.2 36% 86 29.93 0.0
13 14:55 SW 13 G 24 7.00 Fair CLR 87.4 58.5 38% 87 29.94 0.0
13 14:35 SW 17 G 21 10.00 Fair CLR 86.7 59.4 40% 86 29.94 0.0
13 14:15 SW 13 G 20 10.00 Fair CLR 86.2 58.6 39% 86 29.95 0.0
13 13:55 SW 15 G 25 7.00 Fair CLR 86.2 59.7 88.3 24.3 41% 86 29.95 0.0
13 13:35 SW 16 G 22 10.00 Fair CLR 85.6 60.6 43% 86 29.94 0.0
13 13:15 SW 14 G 21 10.00 Fair CLR 85.1 61.5 45% 85 29.94 0.0
13 12:55 SW 15 G 22 10.00 Fair CLR 84.2 61.7 47% 85 29.94 0.0
13 12:35 SW 17 G 23 10.00 Fair CLR 84 61.7 47% 85 29.95 0.0
13 12:15 S 16 G 23 7.00 Fair CLR 83.5 62.1 49% 84 29.94 0.0
13 11:55 SW 16 G 22 7.00 Fair CLR 82.8 62.1 50% 84 29.94 0.0
13 11:35 SW 14 7.00 Fair CLR 82 61.7 50% 83 29.95 0.0
13 11:15 SW 14 7.00 Fair CLR 80.8 61.3 52% 82 29.96 0.0
13 10:55 SW 12 7.00 Fair CLR 79.9 61 53% 81 29.97 0.0
13 10:35 SW 12 G 16 7.00 Fair CLR 79 60.6 53% 80 29.98 0.0
13 10:15 W 13 7.00 Fair CLR 77.7 60.3 55% 79 29.99 0.0
13 09:55 SW 10 10.00 Fair CLR 76.8 59.7 56% 79 30 0.0
13 09:15 SW 9 10.00 Fair CLR 74.5 58.5 58% 29.99 0.0
13 08:55 W 8 7.00 Fair CLR 73.8 57.7 57% 29.99 0.0
13 08:35 SW 7 10.00 Fair CLR 72 56.8 59% 29.99 0.0
13 08:15 SW 7 7.00 Partly Cloudy SCT070 70.9 56.3 60% 29.98 0.0
13 07:55 SW 8 10.00 Partly Cloudy SCT070 69.1 55.8 88.3 24.3 63% 29.97 0.0
13 07:35 SW 7 10.00 Fair CLR 67.8 55.4 65% 29.96 0.0
13 07:15 S 8 10.00 Fair CLR 66 55.2 68% 29.96 0.0
13 06:55 S 6 10.00 Fair CLR 65.3 55 70% 29.96 0.0
13 06:35 SW 6 10.00 Fair CLR 64.9 55 70% 29.96 0.0
13 06:15 S 6 10.00 Fair CLR 64.8 55.4 72% 29.96 0.0
13 05:55 S 6 10.00 Fair CLR 64.4 55.4 73% 29.96 0.0
13 05:35 S 3 10.00 Fair CLR 64.9 55.6 72% 29.95 0.0
13 05:15 S 6 10.00 Fair CLR 64.9 55.6 72% 29.95 0.0
13 04:55 S 5 10.00 Fair CLR 65.5 55.8 71% 29.95 0.0
13 04:35 S 6 10.00 Fair CLR 66.2 55.6 69% 29.95 0.0
13 04:15 S 6 10.00 Fair CLR 66.6 55.6 68% 29.95 0.0
13 03:55 S 6 10.00 Fair CLR 67.1 55.8 67% 29.95 0.0
13 03:35 S 7 10.00 Fair CLR 67.3 55.8 67% 29.95 0.0
13 03:15 S 6 10.00 Fair CLR 67.1 56.1 68% 29.95 0.0
13 02:55 S 5 10.00 Fair CLR 67.5 56.3 68% 29.95 0.0
13 02:35 S 6 10.00 Fair CLR 68.2 56.3 66% 29.96 0.0
13 02:15 S 7 10.00 Fair CLR 68.7 56.3 65% 29.96 0.0
13 01:55 S 8 10.00 Fair CLR 69.1 56.3 88.3 24.3 64% 29.96 0.0
13 01:35 S 7 10.00 Fair CLR 69.6 56.3 63% 29.96 0.0
13 01:15 S 8 10.00 Fair CLR 70 56.5 62% 29.96 0.0
13 00:55 S 7 10.00 Fair CLR 70.5 56.7 62% 29.96 0.0
13 00:35 S 8 10.00 Fair CLR 71.2 56.8 61% 29.96 0.0
13 00:15 S 8 10.00 Fair CLR 71.6 56.8 60% 29.96 0.0
12 23:55 S 9 10.00 Fair CLR 71.8 57.2 60% 29.95 0.0
12 23:35 S 8 10.00 Fair CLR 72.1 57.2 60% 29.94 0.0
12 23:15 S 8 10.00 Fair CLR 72.7 57.2 58% 29.95 0.0
12 22:55 S 8 10.00 Fair CLR 73.2 57.2 57% 29.95 0.0
12 22:35 S 8 10.00 Fair CLR 74.1 57.2 56% 29.95 0.0
12 22:15 S 8 10.00 Fair CLR 74.7 57.2 55% 29.95 0.0
12 21:55 S 8 10.00 Fair CLR 75.2 57.4 54% 78 29.95 0.0
12 21:35 S 8 10.00 Fair CLR 75.2 57.7 55% 78 29.94 0.0
12 21:15 S 7 10.00 Fair CLR 76.5 57.7 52% 78 29.94 0.0
12 20:55 SW 7 10.00 Partly Cloudy SCT080 77.7 57.4 50% 79 29.94 0.0
12 20:35 SW 9 10.00 Partly Cloudy SCT080 79 57.2 47% 80 29.95 0.0
12 20:15 SW 14 G 17 10.00 Fair CLR 80.2 57.4 46% 81 29.95 0.0
12 19:55 SW 12 10.00 Fair CLR 81.5 57.2 88.3 24.3 44% 81 29.95 0.0
12 19:35 SW 13 7.00 Fair CLR 82.9 57.6 42% 83 29.95 0.0
12 19:15 SW 9 7.00 Fair CLR 83.3 57.2 41% 83 29.95 0.0
12 18:55 SW 12 G 17 7.00 Fair CLR 83.8 57 40% 83 29.95 0.0
12 18:35 SW 12 10.00 Fair CLR 84 57.4 40% 83 29.95 0.0
12 18:15 SW 7 10.00 Fair CLR 84 56.8 40% 83 29.95 0.0
12 17:55 SW 16 10.00 Partly Cloudy SCT070 84.6 57.2 39% 84 29.96 0.0
12 17:35 SW 12 7.00 Mostly Cloudy BKN075 83.3 56.7 40% 83 29.97 0.0
12 17:15 SW 10 10.00 Partly Cloudy SCT075 84.2 57.2 40% 83 29.96 0.0
12 16:55 SW 13 G 18 10.00 Fair CLR 84.2 56.7 39% 83 29.97 0.0
12 16:35 W 8 G 17 7.00 Fair CLR 84 56.1 39% 83 29.97 0.0
12 16:15 S 12 10.00 Fair CLR 83.5 56.5 40% 83 29.97 0.0
12 15:55 S 12 7.00 Fair CLR 83.5 56.3 40% 83 29.98 0.0
12 15:35 S 8 G 17 10.00 Fair CLR 83.1 56.1 40% 82 29.99 0.0
12 15:15 SW 12 10.00 Fair CLR 82.9 56.1 40% 82 29.99 0.0
12 14:55 SW 10 G 16 10.00 Fair CLR 82.6 55.6 40% 82 29.99 0.0
12 14:35 S 9 10.00 Fair CLR 82 55.2 40% 81 29.99 0.0
12 14:15 SW 12 7.00 Fair CLR 81.7 54.1 39% 81 30 0.0
12 13:55 S 10 G 16 10.00 Fair CLR 81.1 53.4 88.3 24.3 38% 81 30 0.0
12 13:35 S 9 10.00 Fair CLR 80.6 52.5 38% 80 30.01 0.0
12 13:15 S 9 G 16 10.00 Fair CLR 79.9 52.3 38% 80 30.01 0.0
12 12:55 SW 10 G 16 10.00 Fair CLR 79.5 51.4 38% 79 30.02 0.0
12 12:35 SW 12 10.00 Fair CLR 79 49.8 36% 79 30.02 0.0
12 12:15 SW 9 7.00 Fair CLR 78.3 48.9 36% 79 30.02 0.0
12 11:55 SW 7 7.00 Fair CLR 77.5 47.5 35% 78 30.02 0.0
12 11:35 W 9 G 16 10.00 Fair CLR 77 46 33% 78 30.03 0.0
12 11:15 SW 8 10.00 Fair CLR 76.1 45.9 34% 78 30.03 0.0
12 10:55 SW 12 10.00 Fair CLR 75.6 46 35% 77 30.04 0.0
12 10:35 SW 12 10.00 Fair CLR 74.7 46.2 36% 30.04 0.0
12 10:15 SW 10 7.00 Fair CLR 73.8 46.4 38% 30.04 0.0
12 09:55 SW 13 G 17 10.00 Fair CLR 72.3 47.1 41% 30.04 0.0
12 09:35 SW 9 10.00 Fair CLR 70.9 47.1 43% 30.04 0.0
12 09:15 SW 10 10.00 Fair CLR 69.3 47.7 46% 30.04 0.0
12 08:55 SW 8 10.00 Fair CLR 67.1 48.6 52% 30.04 0.0
12 08:35 SW 7 10.00 Partly Cloudy SCT060 65.5 48.2 54% 30.04 0.0
12 08:15 SW 8 10.00 Mostly Cloudy BKN060 63.9 48.7 58% 30.04 0.0
12 07:55 S 5 10.00 Mostly Cloudy BKN060 61.5 49.3 88.3 24.3 64% 30.04 0.0
12 07:35 S 3 10.00 Mostly Cloudy BKN060 60.3 49.8 69% 30.04 0.0
12 07:15 Calm 10.00 Partly Cloudy SCT060 58.1 49.5 73% 30.04 0.0
12 06:55 Calm 7.00 Fair CLR 56.3 48.9 76% 30.03 0.0
12 06:35 S 3 10.00 Fair CLR 55.9 48.6 76% 30.03 0.0
12 06:15 Calm 7.00 Fair CLR 57 48.4 73% 30.02 0.0
12 05:55 Calm 10.00 Fair CLR 57.4 48 71% 30.02 0.0
12 05:15 S 5 10.00 Partly Cloudy SCT085 58.6 48.2 68% 30.01 0.0
12 04:55 S 3 10.00 Mostly Cloudy BKN085 60.3 48 64% 30.01 0.0
12 04:35 SW 5 10.00 Overcast OVC075 61 48.6 64% 30 0.0
12 04:15 S 5 10.00 Overcast OVC075 61.2 48.2 63% 30 0.0
12 03:55 S 3 10.00 Mostly Cloudy BKN085 60.1 48.2 65% 29.99 0.0
12 03:35 S 3 10.00 Partly Cloudy SCT085 61 47.7 62% 29.99 0.0
12 03:15 S 3 10.00 Partly Cloudy SCT100 62.4 47.8 59% 29.99 0.0
12 02:55 S 5 10.00 Overcast OVC100 62.1 49.1 63% 29.99 0.0
12 02:35 S 3 10.00 Overcast OVC100 61.7 49.6 65% 29.99 0.0
12 02:15 S 3 10.00 Overcast OVC100 61.2 49.8 66% 30 0.0
12 01:55 S 3 10.00 Overcast OVC110 60.4 49.8 88.3 24.3 68% 30 0.0
12 01:35 Calm 10.00 Overcast OVC110 60.4 49.8 68% 30 0.0
12 01:15 Calm 10.00 Overcast OVC110 59.7 50.4 71% 30 0.0
12 00:55 Calm 10.00 Overcast OVC110 59.4 49.6 70% 30 0.0
12 00:35 Calm 10.00 Mostly Cloudy BKN120 59.5 50 71% 30.01 0.0
12 00:15 Calm 10.00 Fair CLR 59.5 50.2 71% 30 0.0
11 23:55 Calm 10.00 Fair CLR 59.4 49.8 71% 30 0.0
11 23:35 Calm 10.00 Fair CLR 60.8 47.7 62% 30 0.0
11 23:15 Calm 10.00 Fair CLR 61.3 47.1 60% 30 0.0
11 22:55 Calm 10.00 Fair CLR 62.4 46.8 57% 30 0.0
11 22:35 Calm 10.00 Fair CLR 63.1 46.2 54% 29.99 0.0
11 22:15 Calm 10.00 Fair CLR 63.7 48.2 57% 29.99 0.0
11 21:55 Calm 10.00 Fair CLR 64.9 46.2 51% 29.99 0.0
11 21:35 Calm 7.00 Fair CLR 66.4 46.6 49% 29.98 0.0
11 21:15 Calm 7.00 Fair CLR 70 39 32% 29.98 0.0
11 20:55 Calm 10.00 Fair CLR 71.2 38.1 30% 29.98 0.0
11 20:35 Calm 10.00 Fair CLR 72.5 39.4 30% 29.98 0.0
11 20:15 N 5 10.00 Fair CLR 73.6 40.8 31% 29.98 0.0
11 19:55 NW 6 10.00 Fair CLR 73.4 41 88.3 24.3 31% 29.98 0.0
11 19:35 NW 7 7.00 Fair CLR 73.8 41 31% 29.98 0.0
11 18:55 NW 6 10.00 Fair CLR 74.3 42.3 32% 29.97 0.0
11 18:35 NW 5 10.00 Fair CLR 74.8 43.2 32% 29.97 0.0
11 18:15 W 6 7.00 Fair CLR 74.7 42.8 32% 29.97 0.0
11 17:55 Calm 7.00 Fair CLR 74.5 41.4 30% 29.98 0.0
11 17:35 W 3 7.00 Fair CLR 74.3 41.5 31% 29.98 0.0
11 16:55 NW 3 7.00 Fair CLR 73.4 41.7 32% 29.98 0.0
11 15:35 N 6 10.00 Fair CLR 72.7 43 34% 30 0.0
11 14:55 Calm 7.00 Fair CLR 71.2 43.9 37% 30.01 0.0
11 14:35 Calm 10.00 Fair CLR 71.1 44.6 39% 30.01 0.0
11 14:15 E 5 10.00 Fair CLR 70 44.4 40% 30.01 0.0
11 13:55 S 3 7.00 Fair CLR 70 44.1 88.3 24.3 39% 30.02 0.0
11 13:35 Calm 10.00 Fair CLR 68.5 44.2 42% 30.02 0.0
11 13:20 Calm 10.00 Fair CLR 68.2 45.3 44% 30.03 0.0
11 13:15 Calm 10.00 Fair CLR 68 44.8 43% 30.02 0.0
11 12:35 Calm 10.00 Fair CLR 66.9 46.2 48% 30.03 0.0
11 12:15 Calm 10.00 Fair CLR 66.2 45.9 48% 30.03 0.0
11 11:55 Calm 7.00 Fair CLR 65.7 47.3 52% 30.04 0.0
11 11:35 NW 5 7.00 Fair CLR 65.3 47.8 53% 30.04 0.0
11 11:15 W 3 10.00 Fair CLR 64 46.9 54% 30.04 0.0
11 10:55 SW 3 10.00 Fair CLR 62.2 46.4 56% 30.04 0.0
11 10:30 Calm 7.00 Fair CLR 60.8 46 58% 30.04 0.0
11 10:15 W 3 10.00 Fair CLR 59.5 45.7 60% 30.05 0.0
11 09:55 W 3 10.00 Fair CLR 57.7 45.1 63% 30.05 0.0
11 09:35 Calm 10.00 Fair CLR 56.5 44.8 65% 30.05 0.0
11 09:15 Calm 10.00 Fair CLR 55.4 44.4 67% 30.05 0.0
11 08:55 Calm 10.00 Fair CLR 54 44.1 69% 30.04 0.0
11 08:35 W 3 10.00 Fair CLR 52.7 43.9 72% 30.05 0.0
11 08:15 W 6 10.00 Fair CLR 50.7 43 75% 30.04 0.0
11 07:55 Calm 10.00 Fair CLR 49.1 42.6 88.3 24.3 78% 30.03 0.0
11 07:35 Calm 10.00 Fair CLR 48.2 42.3 80% 30.02 0.0
11 07:15 Calm 10.00 Fair CLR 46.8 41.9 83% 30.02 0.0
11 06:35 Calm 10.00 Fair CLR 45.1 41.4 87% 30.03 0.0
11 06:15 Calm 7.00 Fair CLR 44.8 41.4 88% 30.03 0.0
11 05:55 NW 3 10.00 Fair CLR 45.1 41.7 88% 30.02 0.0
11 05:35 Calm 10.00 Fair CLR 45.1 42.1 89% 30.02 0.0
11 05:15 Calm 10.00 Fair CLR 45.5 42.4 89% 30.01 0.0
11 04:55 W 3 10.00 Fair CLR 45.5 43 91% 30 0.0
11 04:35 Calm 10.00 Fair CLR 45.9 43.3 91% 30 0.0
11 04:15 Calm 10.00 Fair CLR 46 43 89% 29.99 0.0
11 03:55 Calm 10.00 Fair CLR 45.7 42.6 89% 29.99 0.0
11 03:35 Calm 10.00 Fair CLR 46.4 42.4 86% 29.99 0.0
11 03:15 Calm 10.00 Fair CLR 46.9 42.8 86% 30 0.0
11 02:55 Calm 10.00 Fair CLR 47.5 42.8 84% 29.99 0.0
11 02:35 Calm 10.00 Fair CLR 47.7 42.6 83% 29.99 0.0
11 02:15 Calm 10.00 Fair CLR 48.6 41.5 77% 29.98 0.0
11 01:55 Calm 10.00 Fair CLR 49.6 41 88.3 24.3 72% 29.98 0.0
11 01:35 Calm 10.00 Fair CLR 50 40.8 71% 29.98 0.0
11 01:15 Calm 10.00 Fair CLR 50.9 40.5 68% 29.98 0.0
11 00:55 N 5 10.00 Fair CLR 51.3 40.5 67% 29.97 0.0
11 00:35 N 3 10.00 Fair CLR 52.2 39.9 63% 29.97 0.0
11 00:15 N 3 10.00 Fair CLR 52.3 39.9 63% 29.98 0.0
10 23:55 NW 3 10.00 Fair CLR 54 39.4 58% 29.98 0.0
10 23:35 N 3 10.00 Fair CLR 54.9 39 55% 29.98 0.0
10 23:15 N 5 10.00 Fair CLR 55.2 39.6 56% 29.98 0.0
10 22:55 NW 6 10.00 Fair CLR 56.1 40.1 55% 29.97 0.0
10 22:35 N 5 10.00 Fair CLR 57.2 40.3 53% 29.97 0.0
10 22:15 N 6 10.00 Fair CLR 58.3 40.8 52% 29.96 0.0
10 21:55 NW 6 10.00 Fair CLR 59.2 41.7 53% 29.96 0.0
10 21:35 N 7 10.00 Fair CLR 60.3 41.7 51% 29.95 0.0
10 21:15 N 9 7.00 Fair CLR 61.5 41 47% 29.94 0.0
10 20:55 N 9 7.00 Fair CLR 62.8 41 45% 29.94 0.0
10 20:35 NW 8 10.00 Fair CLR 63.9 41 43% 29.94 0.0
10 20:15 NW 8 10.00 Fair CLR 65.1 41.4 42% 29.94 0.0
10 19:55 NW 9 10.00 Fair CLR 66 42.1 88.3 24.3 42% 29.93 0.0
10 19:35 NW 13 G 16 10.00 Fair CLR 66.4 42.1 41% 29.93 0.0
10 19:15 N 10 G 17 10.00 Fair CLR 67.1 42.4 41% 29.93 0.0
10 18:55 NW 12 10.00 Fair CLR 67.6 42.3 40% 29.92 0.0
10 18:35 N 9 G 16 10.00 Fair CLR 68.2 42.8 40% 29.92 0.0
10 18:15 NW 8 10.00 Fair CLR 68.5 43.2 40% 29.91 0.0
10 17:55 NW 10 G 17 7.00 Partly Cloudy SCT060 69.1 43.2 39% 29.92 0.0
10 17:35 N 9 7.00 Partly Cloudy SCT060 68.9 43.2 40% 29.92 0.0
10 17:15 NW 8 7.00 Partly Cloudy SCT060 68.9 43.5 40% 29.92 0.0
10 16:55 N 8 7.00 Mostly Cloudy BKN050 68.4 44.6 43% 29.92 0.0
Date Time (edt) Wind (mph) Vis. (mi.) Weather Sky Cond. Air Dwpt Max. Min. Relative Humidity Wind Chill (°F) Heat Index (°F) altimeter (in) sea level (mb) 1 hr 3 hr 6 hr
6 hour
Temperature (ºF) Pressure Precipitation (in)